CW6344 Weather Reports


time (UTC)temp
C
wind
direction
speed
KPH
gust
KPH
rain 1hr
cm
rain 24hr
cm
rain mn
cm
humidity
%
barometer
mb
20260510073452 16 268 0.0 0.0 0.00 0.00 0.00 84 1010.1
20260510072452 16 268 0.0 0.0 0.00 0.00 0.00 84 1010.1
20260510071452 16 268 0.0 0.0 0.00 0.00 0.00 84 1010.2
20260510070452 16 268 0.0 0.0 0.00 0.00 0.00 83 1010.2
20260510065452 16 268 0.0 0.0 0.00 0.00 0.00 83 1010.1
20260510064452 16 268 0.0 0.0 0.00 0.00 0.00 82 1010.2
20260510063452 16 268 0.0 0.0 0.00 0.00 0.00 82 1010.1
20260510062452 16 268 0.0 0.0 0.00 0.00 0.00 82 1010.2
20260510061452 16 268 0.0 0.0 0.00 0.00 0.00 81 1010.2
20260510060452 16 268 0.0 1.6 0.00 0.00 0.00 81 1010.3
20260510055452 16 268 0.0 0.0 0.00 0.00 0.00 81 1010.2
20260510054452 17 268 0.0 0.0 0.00 0.00 0.00 80 1010.3
20260510053453 17 268 0.0 0.0 0.00 0.00 0.00 80 1010.2
20260510052452 17 268 0.0 0.0 0.00 0.00 0.00 80 1010.3
20260510051452 17 268 0.0 0.0 0.00 0.00 0.00 80 1010.3
20260510050552 16 246 0.0 0.0 0.00 0.00 0.00 81 1010.4
20260510045452 16 246 0.0 0.0 0.00 0.00 0.00 81 1010.3
20260510044452 16 246 0.0 0.0 0.00 0.00 0.00 81 1010.3
20260510043452 16 246 0.0 0.0 0.00 0.00 0.00 81 1010.3
20260510042522 16 246 0.0 0.0 0.00 0.00 0.00 82 1010.3
20260510041452 16 246 0.0 0.0 0.00 0.00 0.00 82 1010.2
20260510040452 16 246 0.0 0.0 0.00 0.00 0.00 82 1010.2
20260510035452 16 246 0.0 0.0 0.00 0.00 0.00 82 1010.2
20260510034452 16 246 0.0 0.0 0.00 0.00 0.00 82 1010.1
20260510033452 16 246 0.0 0.0 0.00 0.00 0.00 82 1010.1
20260510032452 16 246 0.0 0.0 0.00 0.00 0.00 82 1010.0
20260510031452 16 246 0.0 0.0 0.00 0.00 0.00 82 1009.9
20260510030452 16 246 0.0 0.0 0.00 0.00 0.00 82 1009.7
20260510025452 16 246 0.0 0.0 0.00 0.00 0.00 82 1009.7
20260510024452 16 246 0.0 0.0 0.00 0.00 0.00 82 1009.6
20260510023452 16 246 0.0 0.0 0.00 0.00 0.00 82 1009.6
20260510022452 16 246 0.0 0.0 0.00 0.00 0.00 83 1009.5
20260510021452 16 246 0.0 0.0 0.00 0.00 0.00 83 1009.5
20260510020522 16 246 0.0 0.0 0.00 0.00 0.00 83 1009.5
20260510014452 16 246 0.0 0.0 0.00 0.00 0.00 84 1009.3
20260510013452 16 246 0.0 0.0 0.00 0.00 0.00 84 1009.3
20260510012452 16 246 0.0 0.0 0.00 0.00 0.00 84 1009.3
20260510010452 16 246 0.0 0.0 0.00 0.00 0.00 83 1009.0
20260510005452 16 246 0.0 0.0 0.00 0.00 0.00 83 1008.9
20260510004452 17 246 0.0 0.0 0.00 0.00 0.00 82 1008.8
20260510003452 17 246 0.0 0.0 0.00 0.00 0.00 81 1008.7
20260510002452 17 246 0.0 0.0 0.00 0.00 0.00 80 1008.7
20260510001452 18 246 0.0 0.0 0.00 0.00 0.00 79 1008.6
20260510000452 18 246 0.0 0.0 0.00 0.00 0.00 77 1008.5
20260509235452 18 290 0.0 0.0 0.00 0.00 0.00 76 1008.5
20260509234452 19 279 0.0 0.0 0.00 0.00 0.00 74 1008.5
20260509232452 20 165 0.0 0.0 0.00 0.00 0.00 71 1008.4
20260509231452 20 165 0.0 0.0 0.00 0.00 0.00 70 1008.3
20260509230452 20 165 0.0 0.0 0.00 0.00 0.00 69 1008.3
20260509224452 21 155 0.0 0.0 0.00 0.00 0.00 65 1008.5
20260509223452 21 87 0.0 1.6 0.00 0.00 0.00 64 1008.5
20260509222522 22 63 0.0 3.2 0.00 0.00 0.00 65 1008.4
20260509221452 22 178 0.0 1.6 0.00 0.00 0.00 65 1008.5
20260509220522 22 179 0.0 3.2 0.00 0.00 0.00 66 1008.5
20260509215452 22 61 0.0 1.6 0.00 0.00 0.00 66 1008.5
20260509214452 22 213 1.6 3.2 0.00 0.00 0.00 67 1008.4
20260509213452 22 342 0.0 1.6 0.00 0.00 0.00 70 1008.4
20260509212452 21 319 0.0 3.2 0.00 0.00 0.00 68 1008.4
20260509211452 21 215 0.0 1.6 0.00 0.00 0.00 67 1008.4
20260509210452 21 103 0.0 0.0 0.00 0.00 0.00 68 1008.3
20260509205452 21 55 0.0 0.0 0.00 0.00 0.00 67 1008.3
20260509204452 21 54 0.0 1.6 0.00 0.00 0.00 66 1008.2
20260509202452 21 67 1.6 1.6 0.00 0.00 0.00 64 1008.4
20260509201452 22 312 0.0 3.2 0.00 0.00 0.00 61 1008.3
20260509200522 22 246 0.0 0.0 0.00 0.00 0.00 58 1008.3
20260509195452 23 234 1.6 4.8 0.00 0.00 0.00 53 1008.6
20260509194522 23 351 0.0 1.6 0.00 0.00 0.00 57 1008.7
20260509193452 24 68 4.8 4.8 0.00 0.00 0.00 50 1008.7
20260509192452 24 234 0.0 9.7 0.00 0.00 0.00 54 1009.0
20260509190522 23 245 1.6 3.2 0.00 0.00 0.00 56 1009.1
20260509185452 22 263 1.6 3.2 0.00 0.00 0.00 57 1009.5
20260509184452 22 261 1.6 3.2 0.00 0.00 0.00 54 1009.7
20260509183452 22 294 4.8 4.8 0.00 0.00 0.00 54 1009.7
20260509182452 23 332 0.0 12.9 0.00 0.00 0.00 52 1009.9
20260509181452 23 257 3.2 4.8 0.00 0.00 0.00 56 1009.9
20260509180452 22 138 0.0 3.2 0.00 0.00 0.00 54 1010.1
20260509175452 23 225 4.8 9.7 0.00 0.00 0.00 56 1010.2
20260509174522 22 252 3.2 6.4 0.00 0.00 0.00 57 1010.3
20260509173452 21 242 0.0 3.2 0.00 0.00 0.00 63 1010.2
20260509172452 21 207 0.0 1.6 0.00 0.00 0.00 57 1010.5
20260509171452 21 287 0.0 4.8 0.00 0.00 0.00 56 1010.5
20260509170453 21 13 4.8 4.8 0.00 0.00 0.00 62 1010.5
20260509164452 22 275 0.0 4.8 0.00 0.00 0.00 58 1010.5
20260509163452 22 36 3.2 4.8 0.00 0.00 0.00 62 1010.5
20260509162452 21 87 1.6 4.8 0.00 0.00 0.00 59 1010.7
20260509161453 21 143 1.6 8.0 0.00 0.00 0.00 61 1010.8
20260509160452 21 188 0.0 4.8 0.00 0.00 0.00 63 1010.8
20260509154523 21 324 0.0 4.8 0.00 0.00 0.00 63 1011.1
20260509153453 20 217 0.0 1.6 0.00 0.00 0.00 68 1010.9
20260509152453 20 202 6.4 9.7 0.00 0.00 0.00 64 1011.0
20260509151453 20 225 6.4 6.4 0.00 0.00 0.00 65 1011.3
20260509150453 20 259 0.0 4.8 0.00 0.00 0.00 64 1011.6
20260509145452 20 220 0.0 9.7 0.00 0.00 0.00 63 1011.7
20260509144453 20 262 0.0 4.8 0.00 0.00 0.00 64 1011.8
20260509143453 19 287 3.2 8.0 0.00 0.00 0.00 65 1012.0
20260509142453 19 209 3.2 14.5 0.00 0.00 0.00 67 1012.1
20260509141523 18 274 0.0 1.6 0.00 0.00 0.00 70 1012.1
20260509140453 18 271 3.2 3.2 0.00 0.00 0.00 68 1012.3
20260509135453 18 165 0.0 4.8 0.00 0.00 0.00 70 1012.2
20260509134453 18 221 0.0 1.6 0.00 0.00 0.00 69 1012.3
20260509133453 18 134 0.0 3.2 0.00 0.00 0.00 70 1012.3
20260509132453 18 188 4.8 4.8 0.00 0.00 0.00 70 1012.3
20260509131453 18 223 0.0 6.4 0.00 0.00 0.00 70 1012.3
20260509130453 17 260 0.0 3.2 0.00 0.00 0.00 72 1012.3
20260509125453 17 254 0.0 0.0 0.00 0.00 0.00 74 1012.3
20260509124453 17 233 0.0 3.2 0.00 0.00 0.00 75 1012.4
20260509123453 16 87 1.6 1.6 0.00 0.00 0.00 76 1012.5
20260509122453 16 319 0.0 3.2 0.00 0.00 0.00 76 1012.3
20260509121453 16 104 0.0 0.0 0.00 0.00 0.00 77 1012.4
20260509120453 16 130 3.2 4.8 0.00 0.00 0.00 77 1012.4
20260509115453 15 236 0.0 6.4 0.00 0.00 0.00 77 1012.4
20260509114453 15 206 0.0 6.4 0.00 0.00 0.00 79 1012.4
20260509113453 15 180 0.0 0.0 0.00 0.00 0.00 80 1012.5
20260509112453 14 182 0.0 0.0 0.00 0.00 0.00 81 1012.4
20260509111453 14 309 0.0 0.0 0.00 0.00 0.00 81 1012.4
20260509110453 13 342 0.0 1.6 0.00 0.00 0.00 82 1012.5
20260509105453 13 293 0.0 1.6 0.00 0.00 0.00 82 1012.6
20260509104453 13 195 0.0 0.0 0.00 0.00 0.00 83 1012.5
20260509103453 13 350 0.0 0.0 0.00 0.00 0.00 83 1012.5
20260509102453 13 350 0.0 0.0 0.00 0.00 0.00 83 1012.5
20260509101453 12 243 1.6 1.6 0.00 0.00 0.00 84 1012.5
20260509100523 12 84 0.0 0.0 0.00 0.00 0.00 84 1012.4
20260509095453 12 115 0.0 0.0 0.00 0.03 0.00 84 1012.4
20260509094453 12 214 0.0 0.0 0.00 0.03 0.00 84 1012.4
20260509093453 13 229 0.0 0.0 0.00 0.03 0.00 83 1012.4
20260509092453 13 229 0.0 0.0 0.00 0.03 0.00 83 1012.4
20260509091453 13 231 0.0 0.0 0.00 0.03 0.00 82 1012.3
20260509090453 13 229 0.0 0.0 0.00 0.03 0.00 82 1012.3
20260509084523 13 230 0.0 3.2 0.00 0.03 0.00 81 1012.2
20260509082453 14 186 0.0 1.6 0.00 0.03 0.00 80 1012.3
20260509081453 14 210 0.0 4.8 0.00 0.03 0.00 79 1012.2
20260509080523 14 271 0.0 1.6 0.00 0.03 0.00 79 1012.4
20260509075453 14 200 0.0 3.2 0.00 0.03 0.00 79 1012.4
20260509074453 14 250 0.0 1.6 0.00 0.03 0.00 78 1012.4